Regional Weather Roundup
Issued by NWS

Home | Current Version | Previous Version | Graphics & Text | Print | Product List | Glossary On
Versions: 1 2 3 4 5 6 7 8 9 10 11 12 13 14 15 16 17 18 19 20 21 22 23 24 25 26 27 28 29 30 31 32 33 34 35 36 37 38 39 40 41 42 43 44 45 46 47 48 49 50
000
ASUS45 KTFX 011704
RWRMT
MONTANA HOURLY WEATHER ROUNDUP
NATIONAL WEATHER SERVICE GREAT FALLS MT
1104 AM MDT WED OCT 1 2014

NOTE: "FAIR" INDICATES FEW OR NO CLOUDS BELOW 12000 FEET WITH NO
SIGNIFICANT WEATHER AND/OR OBSTRUCTIONS TO VISIBILITY.

* THESE STATIONS ARE NOT UNDER NWS QUALITY CONTROL. THEY DO NOT
   REPORT WEATHER SUCH AS PRECIPITATION OR FOG.

MTZ001>007-043-011800-
WEST OF THE DIVIDE
CITY           SKY/WX    TMP DP  RH WIND       PRES   REMARKS
KALISPELL      SUNNY     48  43  83 CALM      30.05S
MISSOULA       CLOUDY    50  39  66 N3        30.11R
BUTTE          PTSUNNY   45  34  65 N8        30.09R
MULLAN PASS    FOG       34  34 100 VRB5      30.09S VSB M1/4 WCI  29
* ESSEX        N/A       43  42  96 N/A        N/A
* LINCOLN      N/A       44  35  71 SW3G10     N/A
* LOOKOUT PASS N/A       38  35  89 VRB4       N/A
* RONAN APT    SUNNY     48  41  77 SE5        N/A
* SEELEY LAKE  N/A       45  40  83 S1         N/A
* THOMP F APT  SUNNY     42  30  63 W5G13      N/A
* YAAK HILL    N/A       40  38  93 N/A        N/A
$$

MTZ008-052>055-011800-
SOUTHWEST MONTANA
CITY           SKY/WX    TMP DP  RH WIND       PRES   REMARKS
BOZEMAN        CLOUDY    43  37  79 E6        30.07R
DILLON         SUNNY     48  30  50 VRB3      30.07S
W YELLOWSTONE  PTCLDY    39  30  70 SW5       30.06S WCI  35
* THREE FORKS  PTCLDY    48   0  13 N/A        N/A
* BOULDER HILL N/A       41  28  60 NE5        N/A
* MONIDA PASS  N/A       38  26  62 NW18G24    N/A   WCI  28
* RAYNOLDS PAS N/A       37 -11  12 N4         N/A
* WHITEHALL    N/A       52  36  55 SW9G14     N/A
* WISE RIVER   N/A       45  28  51 W8         N/A
$$

MTZ009>010-012-014-046-048-049-054-011800-
EAST SLOPES AND CENTRAL MONTANA
CITY           SKY/WX    TMP DP  RH WIND       PRES   REMARKS
CUT BANK       SUNNY     54  37  53 W15       29.94F
GREAT FALLS    PTSUNNY   52  39  61 SW16      29.97F
HELENA         PTSUNNY   54  36  51 W17G24    30.03S
MALMSTROM AFB  SUNNY     52  41  66 SW14G20   29.99F
* CONRAD       SUNNY     54  39  57 N/A        N/A
* DEARBORN     N/A       49  41  74 S4         N/A
* EAST GLACIER N/A       46  34  63 W16G24     N/A
* MONARCH      N/A       41  34  76 S9         N/A
* PENDROY      N/A       51  30  45 W12G18     N/A
* ROGERS PASS  N/A       39  34  82 E6G19      N/A   WCI  35
* SAINT MARY   N/A       47  37  68 S10G21     N/A
* SWEET GRASS  N/A       51  36  57 W11        N/A
$$

MTZ011-013-016-021-035-040-045-047-050-051-011800-
NORTH CENTRAL MONTANA
CITY           SKY/WX    TMP DP  RH WIND       PRES   REMARKS
HAVRE          SUNNY     54  39  57 W13       29.92S
LEWISTOWN      PTSUNNY   52  39  61 NW14      29.97R
* CHESTER      N/A       51  37  59 W8G13      N/A
* DENTON       N/A       51  36  57 W12G18     N/A
* JUDITH GAP   N/A       48  32  54 NW18G26    N/A
* LOMA         N/A       52  38  59 W9         N/A
$$

MTZ017>020-022>027-061-062-011800-
NORTHEAST MONTANA
CITY           SKY/WX    TMP DP  RH WIND       PRES   REMARKS
GLASGOW        CLOUDY    52  43  72 W21G26    29.82R
GLENDIVE       CLOUDY    52  45  77 W25G32    29.82R
JORDAN         PTCLDY    55  39  55 NW24G35   29.86S
SIDNEY         CLOUDY    55  46  72 W17G22    29.77R
WOLF POINT     CLOUDY    57  46  67 W21G29    29.79R
* BEAVER HILL  N/A       49  45  86 W20        N/A
* CIRCLE       N/A       48  46  93 W15        N/A
* LINDSAY DVD  N/A       46  44  93 W19G27     N/A
* NAVAJO       N/A       49  46  89 NW19G26    N/A
$$

MTZ028>042-056>058-011800-
SOUTHCENTRAL AND SOUTHEAST MONTANA
CITY           SKY/WX    TMP DP  RH WIND       PRES   REMARKS
BAKER          CLOUDY    48  45  89 W20G28    29.84R
BILLINGS       PTCLDY    55  34  45 NW15      29.96F
LIVINGSTON     PTSUNNY   52  34  50 SW22G29   30.02R
MILES CITY     CLOUDY    57  39  51 NW18      29.88R
* LAUREL APT   PTCLDY    52  30  43 W9         N/A
* ROUNDUP APT  PTCLDY    52  36  55 W16        N/A
* ALZADA       N/A       49  42  77 W12        N/A
* HYSHAM       N/A       51  33  50 W11G20     N/A
* LAME DEER    N/A       48  38  68 W12G22     N/A
* REED POINT   N/A       53  31  43 W15G24     N/A
* ROSCOE HILL  N/A       50  21  32 W4G16      N/A
$$

REGIONAL REPORTS...DAKOTAS
CITY           SKY/WX    TMP DP  RH WIND       PRES   REMARKS
WILLISTON      CLOUDY    55  48  77 W16G26    29.71R
DICKINSON      CLOUDY    54  46  74 W22       29.75R
BEACH          N/A       48  48 100 W18G28    29.80R
CROSBY         N/A       54  54 100 W18G29    29.65R
TIOGA          CLOUDY    54  54 100 W18G24    29.69R
WATFORD CITY   CLOUDY    54  48  80 W15G28    29.71R
BISMARCK       CLOUDY    57  50  78 W17G24    29.71R
GRAND FORKS    CLOUDY    64  54  70 SW13G18   29.59R
FARGO          PTCLDY    68  54  61 SW14      29.64F
BUFFALO SD     PTCLDY    50  45  83 NW23      29.78S
RAPID CITY     PTSUNNY   61  45  56 N22G28    29.86R
$$

REGIONAL REPORTS...WYOMING/IDAHO/WASHINGTON
CITY           SKY/WX    TMP DP  RH WIND       PRES   REMARKS
GILLETTE       CLOUDY    48  39  71 NW17      29.93S
SHERIDAN       CLOUDY    48  39  71 W15       29.97S
CODY           CLOUDY    43  36  76 CALM      30.00S
YELLOWSTONE LA PTCLDY    36  28  73 VRB6      30.07R WCI  31
SALMON         CLOUDY    48  34  59 CALM      30.12S
MULLAN PASS    FOG       34  34 100 VRB5      30.09S VSB M1/4 WCI  29
SAND POINT     PTCLDY    45  45 100 SW6       30.11S
SPOKANE        PTCLDY    48  37  66 S9        30.12R
$$

REGIONAL REPORTS...SASKATCHEWAN
CITY           SKY/WX    TMP DP  RH WIND       PRES   REMARKS
SWIFT CURRENT  PTSUNNY   46  43  89 NW20      29.78R

$$



USA.gov is the U.S. government's official web portal to all federal, state and local government web resources and services.